Regional Weather Roundup
Issued by NWS Kansas City/Pleasant Hill, MO

Home | Current Version | Previous Version | Graphics & Text | Print | Product List | Glossary Off
Versions: 1 2 3 4 5 6 7 8 9 10 11 12 13 14 15 16 17 18 19 20 21 22 23 24 25 26 27 28 29 30 31 32 33 34 35 36 37 38 39 40 41 42 43 44 45 46 47 48 49 50

000
ASUS43 KEAX 130810
RWREAX

WEATHER ROUNDUP FOR EASTERN KANSAS AND NORTHWEST MISSOURI
NATIONAL WEATHER SERVICE KANSAS CITY/PLEASANT HILL MO
200 AM CST SAT FEB 13 2016

KSZ040-057-103>105-MOZ028-029-037-043-130900-
...KANSAS CITY METROPOLITAN AREA...

CITY           SKY/WX    TMP DP  RH WIND       PRES   REMARKS
K.C. INTL      CLOUDY    17   2  51 NE8       30.61R WCI   7
K.C. DOWNTOWN  MOCLDY    19   3  49 NE8       30.63R WCI   9
LEES SUMMIT    CLOUDY    17   3  54 NE9       30.61R WCI   6
OLATHE - IXD   CLOUDY    20   7  57 N9        30.60R WCI   9
OLATHE - OJC   CLOUDY    19   3  49 NE9       30.59R WCI   8
LAWRENCE       CLOUDY    20   7  57 N8        30.61F WCI  10

$$

MOZ001>008-011>017-020>025-030>033-038>040-044>046-053-054-130900-
...NORTHERN AND CENTRAL MISSOURI...

CITY           SKY/WX    TMP DP  RH WIND       PRES   REMARKS
ST. JOSEPH     CLOUDY    16   4  59 N8        30.64S WCI   5
MOSBY          CLOUDY    18   3  53 N7        30.63S WCI   8
WARRENSBURG    CLOUDY    19   5  53 N8        30.61S WCI   9
WHITEMAN AFB   CLOUDY    17   3  53 N10       30.60R WCI   5
CLINTON          N/A     21   9  58 N10       30.60R WCI  10
SEDALIA        CLOUDY    18   3  52 N10       30.62R WCI   6
WARSAW         NOT AVBL
CHILLICOTHE      N/A     14   3  61 N6        30.65S WCI   5
KIRKSVILLE     CLOUDY     8  -1  66 N10       30.61S WCI  -6

$$

MOZ041-047>049-056>058-063>065-088>090-097-130900-
...EASTERN AND SOUTHERN MISSOURI...

CITY           SKY/WX    TMP DP  RH WIND       PRES   REMARKS
ST. LOUIS INTL PTCLDY    16   3  56 N15       30.58R WCI   1
SPIRIT OF STL  CLOUDY    15   3  59 N12G17    30.59R WCI   2
COLUMBIA       PTCLDY    15   4  61 N15       30.59R WCI   0
JEFFERSON CITY CLOUDY    18   6  59 VRB3      30.62R
ROLLA          PTCLDY    16   5  62 N13       30.52R WCI   2
OSAGE BEACH    MOCLDY    18   0  45 N3        30.57S
SPRINGFIELD    CLOUDY    24   6  46 N9        30.51R WCI  14
BRANSON        CLOUDY    28   9  43 N10       30.50R WCI  19
JOPLIN         CLOUDY    27  10  49 N8        30.55R WCI  19
WEST PLAINS    PTCLDY    24   8  50 N7        30.49S WCI  16

$$

IAZ060-094-KSZ022-034>040-054-083-096-NEZ052-066-093-130900-
...KANSAS...SOUTHEAST NEBRASKA AND IOWA...

CITY           SKY/WX    TMP DP  RH WIND       PRES   REMARKS
TOPEKA         CLOUDY    20   0  41 N8        30.61F WCI  10
MANHATTAN      CLOUDY    22  10  60 NE10      30.58F WCI  11
EMPORIA        CLOUDY    23   9  55 NE15      30.54F WCI  10
CHANUTE        CLOUDY    27   8  44 NE12      30.54F WCI  17
WICHITA        CLOUDY    29  16  58 E9        30.50S WCI  20
OMAHA          CLOUDY    11   0  61 N8        30.64F WCI  -1
LINCOLN        CLOUDY    15   5  64 NE8       30.61F WCI   4
FALLS CITY     CLOUDY    16   2  54 NE7       30.62F WCI   6
LAMONI         CLOUDY     5  -2  72 N7        30.61S WCI  -7
DES MOINES     CLOUDY     3  -4  72 N6        30.64S WCI  -8

$$




USA.gov is the U.S. government's official web portal to all federal, state and local government web resources and services.